STARLINK-4297 (53543 NORAD) Tracking and Keplerian Element Data

This shows tracking and keplerian element data for the satellite.

Feedback or suggestion? Click here.




ElementValue
Catalog53543
NameSTARLINK-4297
Epoch Orbit1443
Epoch Day324.99595156
Epoch Year2022
RAAN72.1997
Inclination53.2174
Eccentricity0.0001349
Argument of Perigee62.0173
Mean Anonmoly298.0956
Mean Motion15.08826792
Decay Rate-6.25E-06
L11 53543U 22101S 22324.99595156 -.00000625 00000+0 -21166-4 0 9992
L22 53543 53.2174 72.1997 0001349 62.0173 298.0956 15.08826792 14434



Live tracking and technical data element details for STARLINK-4297 (NORAD 53543). STARLINK-4297 can be tracked NOW for your location showing map with azimuth and elevation plus other details from your city location.







IsCatalogInMostPopularTable: catalog: 53543, numindb: 3
Update: records affected: 1



GetName: 53543 STARLINK-4297

Hit Count: updated at: Thu, 08 Dec 2022 20:22:05 GMT